Regional Weather Roundup
Issued by NWS

Home | Current Version | Previous Version | Graphics & Text | Print | Product List | Glossary On
Versions: 1 2 3 4 5 6 7 8 9 10 11 12 13 14 15 16 17 18 19 20 21 22 23 24 25 26 27 28 29 30 31 32 33 34 35 36 37 38 39 40 41 42 43 44 45 46 47 48 49 50
000
ASUS43 KIND 011859
RWRIN

WEATHER ROUNDUP FOR INDIANA
NATIONAL WEATHER SERVICE INDIANAPOLIS IN
300 PM EDT SAT OCT 01 2016

NOTE: "FAIR" INDICATES FEW OR NO CLOUDS BELOW 12,000 FEET WITH NO
SIGNIFICANT WEATHER AND/OR OBSTRUCTIONS TO VISIBILITY.

* - STATION DOES NOT REPORT WEATHER SUCH AS PRECIPITATION OR FOG.

+ - STATION NOT QUALITY CONTROLLED BY THE NATIONAL WEATHER SERVICE.
    USE DATA WITH CAUTION...ESPECIALLY DEWPOINT AND RELATIVE
    HUMIDITY OBSERVATIONS.

INZ001>003-010>013-019-020-012000-
NORTHWEST INDIANA

CITY           SKY/WX    TMP DP  RH WIND       PRES   REMARKS
GARY /AIRPORT/ PTSUNNY   64  61  88 NE6       29.98F

$$

LMZ046-743>745-012000-
SOUTHERN LAKE MICHIGAN

STATION/POSITION TIME  TEMP    WIND        PRES    WAVE
                       AIR SEA DIR/SP/G            HT
                 (UTC) (F)     (DEG/KT/KT) (MB)    (FT)
BURNS HARBOR     1840   64      50/  6/  9 1015.2F
MICHIGAN CITY    1830   60     120/  4/  5   N/A
5NW MICH CITY    1850   61 64   50/  6/  8   N/A     3

$$

INZ004-005-014>016-021>024-012000-
NORTH CENTRAL INDIANA

CITY           SKY/WX    TMP DP  RH WIND       PRES   REMARKS
ELKHART          N/A     66  52  59 SW6       29.98F
GOSHEN         CLOUDY    64  53  67 SW8       29.98F
SOUTH BEND     MOSUNNY   63  55  75 S5        29.98F

$$

INZ006>009-017-018-025>027-012000-
NORTHEAST INDIANA

CITY           SKY/WX    TMP DP  RH WIND       PRES   REMARKS
ANGOLA *+        N/A     59  48  67 N5        29.99F
FORT WAYNE     TSTM      58  53  84 N5        30.00F
KENDALLVILLE + CLOUDY    64  53  67 SE3       29.99F

$$

INZ028-029-035-036-043>045-051>053-012000-
WEST CENTRAL INDIANA

CITY           SKY/WX    TMP DP  RH WIND       PRES   REMARKS
CRAWFORDSVL +  CLOUDY    62  58  87 SW3       29.99F
LAFAYETTE      CLOUDY    61  57  87 SW6       29.99S
TERRE HAUTE    CLOUDY    62  57  83 S7        30.00F

$$

INZ030>032-037>040-046>048-054>057-064-065-012000-
CENTRAL INDIANA

CITY           SKY/WX    TMP DP  RH WIND       PRES   REMARKS
ANDERSON       CLOUDY    61  50  67 CALM      30.01
COLUMBUS       CLOUDY    59  57  94 S9        30.03F
INDIANAPOLIS   CLOUDY    64  54  69 SW10      29.99F
-EAGLE CREEK   CLOUDY    65  54  67 S3        29.99F
KOKOMO *+      CLOUDY    61  55  82 S6        30.00F
SHELBYVILLE    CLOUDY    67  53  61 SW8       30.00F

$$

INZ033-034-041-042-049-050-058-059-012000-
EAST CENTRAL INDIANA

CITY           SKY/WX    TMP DP  RH WIND       PRES   REMARKS
MUNCIE         LGT RAIN  61  56  83 W3        30.00F

$$

INZ060-061-067>069-081>083-085>088-012000-
SOUTHWEST INDIANA

CITY           SKY/WX    TMP DP  RH WIND       PRES   REMARKS
EVANSVILLE     MOSUNNY   73  60  63 VRB3      29.99F
HUNTINGBURG *+   N/A     66  57  72 SW6       30.00F

$$

INZ062-063-066-070>080-084-089>092-012000-
SOUTH CENTRAL AND SOUTHEAST INDIANA

CITY           SKY/WX    TMP DP  RH WIND       PRES   REMARKS
BLOOMINGTON    CLOUDY    59  54  83 S9        30.02F
MADISON *+     CLOUDY    64  54  68 SW5       30.04F
SEYMOUR +      CLOUDY    66  57  72 CALM      30.01

$$




USA.gov is the U.S. government's official web portal to all federal, state and local government web resources and services.